Location: Peebles
(55.6412°N, 3.1714°W)
Time: 18:12:12
(UTC+01:00)

Envisat - Pass Details

Date: 25 February 2024
Orbit: 762 x 764 km, 98.3° (Epoch: 20 April)

Event Time Altitude Azimuth Distance (km) Brightness Sun altitude
Rises 05:05:31 0° 12° (NNE) 3,247 6.6 -18.9°
Reaches altitude 10° 05:08:01 10° 3° (N) 2,316 5.6 -18.6°
Maximum altitude 05:12:33 34° 300° (WNW) 1,258 3.7 -18.0°
Enters shadow 05:13:34 31° 276° (W) 1,331 3.7 -17.8°
